Gallivare, Sweden

12:07 PM CET on January 18, 2017 (GMT +0100)
Gallivare

Weather History for ESNG - June, 2013

Change the Weather History Date:

Thursday, June 13, 2013

  Actual Average Record
Temperature  
Mean Temperature 46 °F -  
Max Temperature 60 °F - - ()
Min Temperature 33 °F - - ()
Degree Days  
Heating Degree Days 18    
Moisture  
Dew Point 37 °F    
Average Humidity 63    
Maximum Humidity 93    
Minimum Humidity 39    
Precipitation  
Precipitation 0.00 in - - ()
Sea Level Pressure  
Sea Level Pressure 29.87 in    
Wind  
Wind Speed 6 mph ()    
Max Wind Speed 17 mph    
Max Gust Speed -    
Visibility 6.2 miles    
Events      
T = Trace of Precipitation, MM = Missing Value Source: Averaged Metar Reports

Daily Weather History Graph

Daily Weather History Graph

Search for Another Location

Airport or City:

Trip Planner

Search our weather history database for the weather conditions in past years. The results will help you decide how hot, cold, wet, or windy it might be!

Date:

Astronomy

Jun. 13, 2013 Rise Set
Actual Time 1:09 AM CEST 12:05 AM CEST
Civil Twilight Sun does not rise Sun does not rise
Nautical Twilight Sun does not rise Sun does not rise
Astronomical Twilight Sun does not rise Sun does not rise
Moon 8:03 AM CEST (6/13) 12:03 AM CEST (6/13)
Length of Visible Light 24h 00m
Length of Day
22h 55m
Waxing Crescent, 19% of the Moon is Illuminated
Jun 13
Waxing Crescent
Jun 16
First Quarter
Jun 23
Full
Jun 30
Last Quarter
Jul 8
New

Hourly Weather History & Observations

Time (CEST) Temp. Windchill Dew Point Humidity Pressure Visibility Wind Dir Wind Speed Gust Speed Precip Events Conditions
12:20 AM 39.2 °F - 33.8 °F 81% 30.04 in 6.2 mi ESE 2.3 mph - N/A   Unknown
12:50 AM 33.8 °F - 30.2 °F 87% 30.04 in 6.2 mi Variable 1.2 mph - N/A   Unknown
1:20 AM 35.6 °F - 32.0 °F 87% 30.04 in 6.2 mi Variable 2.3 mph - N/A   Unknown
1:50 AM 33.8 °F - 30.2 °F 87% 30.04 in 6.2 mi Calm Calm - N/A   Unknown
2:20 AM 33.8 °F - 30.2 °F 87% 30.01 in 6.2 mi Calm Calm - N/A   Unknown
2:50 AM 33.8 °F - 32.0 °F 93% 30.01 in 6.2 mi Variable 1.2 mph - N/A   Partly Cloudy
3:20 AM 33.8 °F - 32.0 °F 93% 30.01 in 6.2 mi Calm Calm - N/A   Partly Cloudy
3:50 AM 35.6 °F - 33.8 °F 93% 30.01 in 6.2 mi Variable 2.3 mph - N/A   Mostly Cloudy
4:20 AM 39.2 °F - 33.8 °F 81% 29.98 in 6.2 mi Variable 2.3 mph - N/A   Mostly Cloudy
4:50 AM 39.2 °F 37.0 °F 35.6 °F 87% 29.98 in - SE 3.5 mph - N/A   Clear
5:20 AM 41.0 °F 37.1 °F 37.4 °F 87% 29.98 in - East 5.8 mph - N/A   Clear
5:50 AM 44.6 °F 43.1 °F 39.2 °F 81% 29.98 in - ESE 3.5 mph - N/A   Clear
6:20 AM 48.2 °F - 41.0 °F 76% 29.95 in - South 6.9 mph - N/A   Clear
6:50 AM 48.2 °F - 41.0 °F 76% 29.95 in - SW 3.5 mph - N/A   Clear
7:20 AM 50.0 °F - 41.0 °F 71% 29.95 in - SSE 8.1 mph - N/A   Clear
7:50 AM 50.0 °F - 41.0 °F 71% 29.92 in - SSE 6.9 mph - N/A   Clear
8:20 AM 53.6 °F - 42.8 °F 67% 29.92 in - South 9.2 mph - N/A   Clear
8:50 AM 53.6 °F - 41.0 °F 62% 29.92 in 6.2 mi South 11.5 mph - N/A   Partly Cloudy
9:20 AM 53.6 °F - 39.2 °F 58% 29.92 in 6.2 mi South 13.8 mph - N/A   Scattered Clouds
9:50 AM 53.6 °F - 39.2 °F 58% 29.92 in - South 16.1 mph - N/A   Clear
10:20 AM 53.6 °F - 39.2 °F 58% 29.89 in - South 12.7 mph - N/A   Clear
10:50 AM 55.4 °F - 39.2 °F 54% 29.89 in - South 15.0 mph - N/A   Clear
11:20 AM 57.2 °F - 39.2 °F 51% 29.89 in - South 11.5 mph - N/A   Clear
11:50 AM 57.2 °F - 39.2 °F 51% 29.86 in - South 13.8 mph - N/A   Clear
2:50 PM 59.0 °F - 37.4 °F 45% 29.80 in 6.2 mi SSW 17.3 mph - N/A   Scattered Clouds
3:20 PM 60.8 °F - 37.4 °F 42% 29.80 in 6.2 mi South 13.8 mph - N/A   Mostly Cloudy
3:50 PM 60.8 °F - 35.6 °F 39% 29.80 in 6.2 mi South 13.8 mph - N/A   Mostly Cloudy
4:20 PM 60.8 °F - 37.4 °F 42% 29.77 in 6.2 mi South 13.8 mph - N/A   Mostly Cloudy
4:50 PM 60.8 °F - 35.6 °F 39% 29.77 in 6.2 mi South 13.8 mph - N/A   Mostly Cloudy
5:20 PM 60.8 °F - 37.4 °F 42% 29.77 in 6.2 mi South 11.5 mph - N/A   Mostly Cloudy
5:50 PM 60.8 °F - 37.4 °F 42% 29.74 in 6.2 mi South 12.7 mph - N/A   Mostly Cloudy
6:20 PM 60.8 °F - 37.4 °F 42% 29.74 in 6.2 mi South 13.8 mph - N/A   Mostly Cloudy
7:20 PM 59.0 °F - 37.4 °F 45% 29.74 in 6.2 mi SSE 13.8 mph - N/A   Scattered Clouds
7:50 PM 59.0 °F - 37.4 °F 45% 29.71 in - SSE 13.8 mph - N/A   Clear
8:20 PM 57.2 °F - 37.4 °F 48% 29.71 in - South 11.5 mph - N/A   Clear
8:50 PM 57.2 °F - 37.4 °F 48% 29.71 in - South 13.8 mph - N/A   Clear
9:20 PM 55.4 °F - 37.4 °F 51% 29.71 in - SSE 9.2 mph - N/A   Clear
9:50 PM 55.4 °F - 37.4 °F 51% 29.71 in - ESE 9.2 mph - N/A   Clear
10:20 PM 53.6 °F - 37.4 °F 54% 29.71 in 6.2 mi ESE 10.4 mph - N/A   Unknown
10:50 PM 53.6 °F - 37.4 °F 54% 29.71 in 6.2 mi SE 5.8 mph - N/A   Unknown
11:20 PM 50.0 °F - 37.4 °F 62% 29.68 in 6.2 mi ENE 5.8 mph - N/A   Partly Cloudy
11:50 PM 48.2 °F - 37.4 °F 66% 29.68 in 6.2 mi SE 5.8 mph - N/A   Partly Cloudy